| time (UTC) | temp F | wind direction | speed knots | gust knots | rain 1hr in | rain 24hr in | rain mn in | humidity % | barometer mb |
| 20260505230740 | 46 | 29 | 9.6 | 13.9 | 0.00 | 0.26 | 0.26 | 92 | 1010.4 |
| 20260505230237 | 46 | 3 | 7.0 | 9.6 | 0.02 | 0.26 | 0.26 | 92 | 1010.5 |
| 20260505225733 | 46 | 36 | 9.6 | 13.0 | 0.05 | 0.26 | 0.26 | 92 | 1010.1 |
| 20260505225231 | 46 | 33 | 10.4 | 13.9 | 0.05 | 0.25 | 0.25 | 92 | 1010.2 |
| 20260505224725 | 46 | 27 | 7.0 | 13.9 | 0.02 | 0.25 | 0.25 | 92 | 1010.1 |
| 20260505224224 | 46 | 19 | 9.6 | 16.5 | 0.02 | 0.24 | 0.24 | 91 | 1010.0 |
| 20260505223721 | 47 | 32 | 8.7 | 13.0 | 0.02 | 0.24 | 0.24 | 90 | 1010.1 |
| 20260505223217 | 47 | 26 | 6.1 | 9.6 | 0.00 | 0.24 | 0.24 | 89 | 1010.2 |
| 20260505222713 | 46 | 3 | 7.0 | 21.7 | 0.00 | 0.24 | 0.24 | 89 | 1010.4 |
| 20260505222209 | 47 | 29 | 16.5 | 19.1 | 0.00 | 0.24 | 0.24 | 89 | 1010.4 |
| 20260505221707 | 47 | 1 | 3.5 | 12.2 | 0.00 | 0.24 | 0.24 | 89 | 1010.3 |
| 20260505221203 | 47 | 17 | 5.2 | 13.0 | 0.00 | 0.24 | 0.24 | 86 | 1010.1 |
| 20260505220700 | 48 | 352 | 7.0 | 12.2 | 0.00 | 0.24 | 0.24 | 84 | 1010.4 |
| 20260505220158 | 48 | 5 | 6.1 | 15.6 | 0.00 | 0.24 | 0.24 | 84 | 1010.2 |
| 20260505215655 | 48 | 22 | 10.4 | 13.9 | 0.00 | 0.24 | 0.24 | 83 | 1010.2 |
| 20260505215153 | 48 | 19 | 6.1 | 15.6 | 0.00 | 0.24 | 0.24 | 83 | 1010.2 |
| 20260505214651 | 48 | 14 | 9.6 | 13.0 | 0.00 | 0.24 | 0.24 | 82 | 1010.2 |
| 20260505214148 | 49 | 37 | 5.2 | 10.4 | 0.00 | 0.24 | 0.24 | 81 | 1009.9 |
| 20260505213645 | 49 | 33 | 9.6 | 14.8 | 0.00 | 0.24 | 0.24 | 80 | 1010.3 |
| 20260505213142 | 49 | 14 | 7.0 | 17.4 | 0.00 | 0.24 | 0.24 | 80 | 1010.1 |
| 20260505212638 | 49 | 14 | 7.0 | 11.3 | 0.00 | 0.24 | 0.24 | 82 | 1010.0 |
| 20260505212136 | 49 | 25 | 7.8 | 13.9 | 0.00 | 0.24 | 0.24 | 82 | 1009.9 |
| 20260505211632 | 49 | 15 | 5.2 | 14.8 | 0.00 | 0.24 | 0.24 | 82 | 1010.1 |
| 20260505211130 | 49 | 27 | 8.7 | 17.4 | 0.00 | 0.24 | 0.24 | 82 | 1010.4 |
| 20260505210626 | 49 | 23 | 5.2 | 13.0 | 0.00 | 0.24 | 0.24 | 82 | 1010.3 |
| 20260505210123 | 49 | 31 | 4.3 | 9.6 | 0.00 | 0.24 | 0.24 | 82 | 1010.3 |
| 20260505205621 | 49 | 34 | 12.2 | 15.6 | 0.00 | 0.24 | 0.24 | 82 | 1010.2 |
| 20260505205119 | 49 | 18 | 8.7 | 12.2 | 0.00 | 0.24 | 0.24 | 82 | 1010.0 |
| 20260505204615 | 49 | 14 | 3.5 | 17.4 | 0.00 | 0.24 | 0.24 | 82 | 1010.0 |
| 20260505204113 | 49 | 28 | 13.9 | 17.4 | 0.00 | 0.24 | 0.24 | 83 | 1010.0 |
| 20260505203609 | 49 | 26 | 10.4 | 12.2 | 0.00 | 0.24 | 0.24 | 84 | 1009.9 |
| 20260505203106 | 49 | 59 | 5.2 | 12.2 | 0.00 | 0.24 | 0.24 | 85 | 1009.8 |
| 20260505202602 | 49 | 22 | 12.2 | 18.2 | 0.00 | 0.24 | 0.24 | 85 | 1009.7 |
| 20260505202058 | 49 | 23 | 6.1 | 14.8 | 0.00 | 0.24 | 0.24 | 85 | 1010.1 |
| 20260505201555 | 49 | 36 | 2.6 | 15.6 | 0.00 | 0.24 | 0.24 | 85 | 1010.5 |
| 20260505201053 | 48 | 14 | 7.8 | 16.5 | 0.00 | 0.24 | 0.24 | 86 | 1010.2 |
| 20260505200551 | 49 | 31 | 6.1 | 14.8 | 0.00 | 0.24 | 0.24 | 88 | 1010.2 |
| 20260505200047 | 49 | 21 | 13.0 | 14.8 | 0.00 | 0.24 | 0.24 | 90 | 1010.0 |
| 20260505195543 | 49 | 0 | 3.5 | 11.3 | 0.00 | 0.24 | 0.24 | 91 | 1009.9 |
| 20260505195041 | 49 | 40 | 7.8 | 15.6 | 0.00 | 0.24 | 0.24 | 91 | 1009.7 |
| 20260505194538 | 49 | 23 | 11.3 | 17.4 | 0.00 | 0.24 | 0.24 | 92 | 1009.3 |
| 20260505194033 | 49 | 345 | 6.1 | 16.5 | 0.00 | 0.24 | 0.24 | 92 | 1009.4 |
| 20260505193531 | 49 | 29 | 11.3 | 20.9 | 0.00 | 0.24 | 0.24 | 90 | 1009.8 |
| 20260505193028 | 49 | 28 | 13.0 | 16.5 | 0.00 | 0.24 | 0.24 | 91 | 1009.9 |
| 20260505192526 | 50 | 28 | 14.8 | 17.4 | 0.00 | 0.24 | 0.24 | 92 | 1009.7 |
| 20260505192024 | 50 | 2 | 4.3 | 12.2 | 0.00 | 0.24 | 0.24 | 92 | 1009.9 |
| 20260505191522 | 50 | 19 | 5.2 | 11.3 | 0.00 | 0.24 | 0.24 | 91 | 1010.1 |
| 20260505191020 | 50 | 5 | 7.8 | 18.2 | 0.00 | 0.24 | 0.24 | 89 | 1009.8 |
| 20260505190514 | 50 | 27 | 8.7 | 14.8 | 0.00 | 0.24 | 0.24 | 88 | 1010.0 |
| 20260505190010 | 51 | 4 | 5.2 | 13.9 | 0.00 | 0.24 | 0.24 | 88 | 1010.0 |
| 20260505185507 | 51 | 27 | 6.1 | 13.9 | 0.00 | 0.24 | 0.24 | 87 | 1009.7 |
| 20260505185003 | 52 | 34 | 4.3 | 13.9 | 0.00 | 0.24 | 0.24 | 85 | 1009.2 |
| 20260505184500 | 52 | 15 | 9.6 | 18.2 | 0.00 | 0.24 | 0.24 | 83 | 1009.3 |
| 20260505183957 | 52 | 31 | 18.2 | 22.6 | 0.00 | 0.24 | 0.24 | 82 | 1009.3 |
| 20260505183454 | 52 | 15 | 9.6 | 15.6 | 0.00 | 0.24 | 0.24 | 81 | 1009.4 |
| 20260505182950 | 52 | 27 | 7.8 | 19.1 | 0.00 | 0.24 | 0.24 | 81 | 1009.5 |
| 20260505182448 | 52 | 30 | 11.3 | 20.9 | 0.00 | 0.24 | 0.24 | 81 | 1009.4 |
| 20260505181944 | 52 | 40 | 5.2 | 17.4 | 0.00 | 0.24 | 0.24 | 81 | 1009.7 |
| 20260505181441 | 52 | 49 | 7.0 | 18.2 | 0.00 | 0.24 | 0.24 | 81 | 1009.7 |
| 20260505180938 | 52 | 26 | 12.2 | 17.4 | 0.00 | 0.24 | 0.24 | 81 | 1009.4 |
| 20260505180434 | 52 | 10 | 8.7 | 15.6 | 0.00 | 0.24 | 0.24 | 80 | 1009.4 |
| 20260505175931 | 53 | 20 | 13.0 | 20.9 | 0.00 | 0.24 | 0.24 | 80 | 1009.1 |
| 20260505175427 | 53 | 44 | 7.8 | 15.6 | 0.00 | 0.24 | 0.24 | 81 | 1009.0 |
| 20260505174924 | 53 | 50 | 13.0 | 13.0 | 0.00 | 0.24 | 0.24 | 81 | 1009.0 |
| 20260505174422 | 53 | 32 | 7.8 | 9.6 | 0.00 | 0.24 | 0.24 | 82 | 1009.1 |
| 20260505173917 | 53 | 37 | 12.2 | 16.5 | 0.00 | 0.24 | 0.24 | 81 | 1009.0 |
| 20260505173414 | 53 | 29 | 7.0 | 18.2 | 0.00 | 0.24 | 0.24 | 81 | 1009.0 |
| 20260505172911 | 53 | 36 | 13.9 | 19.1 | 0.00 | 0.24 | 0.24 | 81 | 1009.4 |
| 20260505172409 | 53 | 22 | 12.2 | 20.9 | 0.00 | 0.24 | 0.24 | 81 | 1009.2 |
| 20260505171908 | 53 | 34 | 6.1 | 18.2 | 0.00 | 0.24 | 0.24 | 80 | 1009.1 |
| 20260505171406 | 54 | 355 | 11.3 | 24.3 | 0.00 | 0.24 | 0.24 | 80 | 1009.0 |
| 20260505170902 | 55 | 33 | 8.7 | 14.8 | 0.00 | 0.24 | 0.24 | 79 | 1009.0 |
| 20260505170359 | 55 | 27 | 11.3 | 20.0 | 0.00 | 0.24 | 0.24 | 79 | 1008.8 |
| 20260505165854 | 55 | 31 | 10.4 | 20.0 | 0.00 | 0.24 | 0.24 | 80 | 1009.0 |
| 20260505165350 | 55 | 22 | 11.3 | 16.5 | 0.00 | 0.24 | 0.24 | 80 | 1008.8 |
| 20260505164846 | 55 | 38 | 9.6 | 18.2 | 0.00 | 0.24 | 0.24 | 81 | 1008.9 |
| 20260505164342 | 54 | 29 | 17.4 | 19.1 | 0.00 | 0.24 | 0.24 | 81 | 1009.2 |
| 20260505163841 | 55 | 13 | 11.3 | 17.4 | 0.00 | 0.24 | 0.24 | 80 | 1008.9 |
| 20260505163339 | 55 | 17 | 8.7 | 16.5 | 0.00 | 0.24 | 0.24 | 80 | 1008.9 |
| 20260505162838 | 55 | 30 | 17.4 | 20.9 | 0.00 | 0.24 | 0.24 | 80 | 1008.9 |
| 20260505162333 | 55 | 31 | 18.2 | 21.7 | 0.00 | 0.24 | 0.24 | 80 | 1009.0 |
| 20260505161830 | 56 | 20 | 9.6 | 17.4 | 0.00 | 0.24 | 0.24 | 79 | 1008.6 |
| 20260505161328 | 55 | 35 | 14.8 | 20.0 | 0.00 | 0.24 | 0.24 | 80 | 1009.0 |
| 20260505160825 | 55 | 19 | 11.3 | 17.4 | 0.00 | 0.24 | 0.24 | 80 | 1008.8 |
| 20260505160323 | 55 | 28 | 11.3 | 15.6 | 0.00 | 0.24 | 0.24 | 81 | 1008.6 |
| 20260505153302 | 55 | 43 | 4.3 | 9.6 | 0.00 | 0.24 | 0.24 | 82 | 1009.3 |
| 20260505152759 | 55 | 355 | 6.1 | 12.2 | 0.00 | 0.24 | 0.24 | 81 | 1009.2 |
| 20260505152256 | 55 | 321 | 5.2 | 11.3 | 0.00 | 0.24 | 0.24 | 82 | 1009.1 |
| 20260505151755 | 55 | 1 | 6.1 | 10.4 | 0.00 | 0.24 | 0.24 | 82 | 1009.0 |
| 20260505151253 | 55 | 24 | 5.2 | 12.2 | 0.00 | 0.24 | 0.24 | 82 | 1009.0 |
| 20260505150750 | 55 | 15 | 4.3 | 7.8 | 0.00 | 0.24 | 0.24 | 83 | 1008.7 |
| 20260505150247 | 55 | 23 | 5.2 | 7.8 | 0.00 | 0.24 | 0.24 | 83 | 1008.4 |
| 20260505140217 | 55 | 19 | 11.3 | 13.0 | 0.00 | 0.24 | 0.24 | 85 | 1008.4 |
| 20260505130141 | 56 | 28 | 6.1 | 9.6 | 0.00 | 0.24 | 0.24 | 90 | 1007.7 |
| 20260505124631 | 56 | 4 | 7.0 | 12.2 | 0.00 | 0.24 | 0.24 | 90 | 1007.6 |
| 20260505124127 | 56 | 39 | 7.0 | 10.4 | 0.00 | 0.24 | 0.24 | 91 | 1007.5 |
| 20260505123623 | 56 | 32 | 7.8 | 10.4 | 0.00 | 0.24 | 0.24 | 91 | 1007.3 |
| 20260505123120 | 56 | 28 | 8.7 | 13.0 | 0.00 | 0.24 | 0.24 | 90 | 1007.3 |
| 20260505122617 | 57 | 29 | 4.3 | 8.7 | 0.00 | 0.24 | 0.24 | 91 | 1007.2 |
| 20260505122114 | 57 | 25 | 8.7 | 13.0 | 0.00 | 0.24 | 0.24 | 90 | 1007.0 |
| 20260505121610 | 57 | 19 | 10.4 | 12.2 | 0.00 | 0.24 | 0.24 | 89 | 1006.8 |
| 20260505121107 | 58 | 26 | 6.1 | 9.6 | 0.00 | 0.24 | 0.24 | 90 | 1007.2 |
| 20260505120603 | 58 | 16 | 3.5 | 9.6 | 0.00 | 0.24 | 0.24 | 90 | 1006.8 |
| 20260505120059 | 58 | 43 | 7.8 | 13.0 | 0.00 | 0.24 | 0.24 | 90 | 1006.6 |
| 20260505115554 | 58 | 32 | 8.7 | 13.0 | 0.00 | 0.24 | 0.24 | 91 | 1006.5 |
| 20260505115051 | 59 | 25 | 9.6 | 9.6 | 0.00 | 0.24 | 0.24 | 92 | 1006.6 |
| 20260505114548 | 59 | 22 | 6.1 | 8.7 | 0.00 | 0.24 | 0.24 | 92 | 1006.2 |
| 20260505114044 | 59 | 31 | 6.1 | 7.0 | 0.00 | 0.24 | 0.24 | 93 | 1006.4 |
| 20260505113541 | 59 | 23 | 7.8 | 9.6 | 0.00 | 0.24 | 0.24 | 92 | 1006.5 |
| 20260505113038 | 59 | 42 | 3.5 | 7.0 | 0.00 | 0.24 | 0.24 | 92 | 1006.7 |
| 20260505112534 | 60 | 23 | 3.5 | 5.2 | 0.00 | 0.24 | 0.24 | 93 | 1006.5 |
| 20260505112032 | 60 | 27 | 5.2 | 9.6 | 0.00 | 0.24 | 0.24 | 91 | 1006.7 |
| 20260505111526 | 60 | 21 | 5.2 | 6.1 | 0.00 | 0.24 | 0.24 | 92 | 1006.8 |
| 20260505111022 | 60 | 17 | 5.2 | 6.1 | 0.00 | 0.24 | 0.24 | 92 | 1006.8 |
| 20260505110519 | 60 | 21 | 2.6 | 7.0 | 0.02 | 0.24 | 0.24 | 93 | 1006.7 |
| 20260505101951 | 61 | 300 | 4.3 | 8.7 | 0.00 | 0.23 | 0.23 | 90 | 1007.0 |
| 20260505101449 | 61 | 314 | 4.3 | 5.2 | 0.00 | 0.23 | 0.23 | 90 | 1006.8 |
| 20260505100945 | 61 | 27 | 7.8 | 8.7 | 0.00 | 0.23 | 0.23 | 89 | 1006.0 |
| 20260505100443 | 61 | 25 | 1.7 | 8.7 | 0.00 | 0.23 | 0.23 | 89 | 1006.3 |
| 20260505095939 | 61 | 341 | 5.2 | 7.8 | 0.00 | 0.23 | 0.23 | 90 | 1006.8 |
| 20260505095436 | 61 | 335 | 4.3 | 4.3 | 0.00 | 0.23 | 0.23 | 89 | 1006.3 |
| 20260505094932 | 61 | 305 | 14.8 | 20.0 | 0.02 | 0.23 | 0.23 | 88 | 1006.6 |
| 20260505094429 | 61 | 305 | 13.0 | 13.9 | 0.00 | 0.23 | 0.23 | 89 | 1006.6 |
| 20260505093925 | 60 | 271 | 3.5 | 4.3 | 0.00 | 0.23 | 0.23 | 88 | 1006.3 |
| 20260505093422 | 61 | 253 | 1.7 | 1.7 | 0.00 | 0.23 | 0.23 | 87 | 1006.0 |
| 20260505092919 | 61 | 145 | 2.6 | 3.5 | 0.00 | 0.23 | 0.23 | 86 | 1005.5 |
| 20260505092417 | 61 | 150 | 6.1 | 6.1 | 0.02 | 0.23 | 0.23 | 85 | 1005.4 |
| 20260505091914 | 61 | 166 | 6.1 | 11.3 | 0.05 | 0.23 | 0.23 | 85 | 1005.2 |
| 20260505091412 | 62 | 139 | 8.7 | 15.6 | 0.05 | 0.22 | 0.22 | 83 | 1004.9 |
| 20260505090909 | 61 | 149 | 8.7 | 12.2 | 0.07 | 0.22 | 0.22 | 85 | 1004.8 |
| 20260505090408 | 62 | 141 | 7.8 | 13.0 | 0.05 | 0.22 | 0.22 | 82 | 1004.5 |
| 20260505085905 | 62 | 134 | 11.3 | 15.6 | 0.00 | 0.21 | 0.21 | 82 | 1003.9 |
| 20260505085402 | 62 | 142 | 13.9 | 15.6 | 0.00 | 0.21 | 0.21 | 85 | 1004.2 |
| 20260505084900 | 61 | 213 | 11.3 | 13.9 | 0.02 | 0.21 | 0.21 | 88 | 1004.4 |
| 20260505084358 | 62 | 152 | 10.4 | 19.1 | 0.02 | 0.21 | 0.21 | 89 | 1003.8 |
| 20260505083856 | 62 | 138 | 19.1 | 20.0 | 0.00 | 0.20 | 0.20 | 89 | 1003.6 |
| 20260505083353 | 61 | 141 | 14.8 | 20.0 | 0.05 | 0.20 | 0.20 | 93 | 1004.2 |
| 20260505082849 | 61 | 145 | 11.3 | 14.8 | 0.05 | 0.20 | 0.20 | 94 | 1005.0 |
| 20260505082345 | 61 | 166 | 7.8 | 13.0 | 0.05 | 0.20 | 0.20 | 94 | 1005.6 |
| 20260505081842 | 61 | 148 | 9.6 | 13.0 | 0.07 | 0.20 | 0.20 | 95 | 1006.1 |
| 20260505081339 | 61 | 157 | 7.0 | 11.3 | 0.07 | 0.19 | 0.19 | 96 | 1006.3 |
| 20260505080836 | 60 | 215 | 11.3 | 13.9 | 0.14 | 0.18 | 0.18 | 96 | 1007.0 |
| 20260505080331 | 61 | 216 | 7.0 | 9.6 | 0.12 | 0.18 | 0.18 | 95 | 1006.8 |
| 20260505075827 | 61 | 237 | 5.2 | 7.8 | 0.07 | 0.16 | 0.16 | 96 | 1007.0 |
| 20260505075324 | 61 | 169 | 8.7 | 11.3 | 0.12 | 0.16 | 0.16 | 96 | 1007.2 |
| 20260505074822 | 61 | 207 | 11.3 | 20.0 | 0.17 | 0.15 | 0.15 | 95 | 1007.4 |
| 20260505074319 | 61 | 220 | 12.2 | 17.4 | 0.12 | 0.13 | 0.13 | 95 | 1007.7 |
| 20260505073816 | 61 | 230 | 7.8 | 17.4 | 0.14 | 0.12 | 0.12 | 94 | 1007.4 |
| 20260505073314 | 61 | 233 | 22.6 | 22.6 | 0.21 | 0.11 | 0.11 | 95 | 1007.3 |
| 20260505072811 | 61 | 211 | 13.9 | 25.2 | 0.21 | 0.09 | 0.09 | 95 | 1007.3 |
| 20260505072307 | 61 | 206 | 9.6 | 16.5 | 0.17 | 0.07 | 0.07 | 92 | 1007.4 |
| 20260505071803 | 62 | 224 | 12.2 | 26.1 | 0.14 | 0.06 | 0.06 | 91 | 1007.2 |
| 20260505071259 | 62 | 237 | 13.9 | 20.9 | 0.14 | 0.05 | 0.05 | 89 | 1007.3 |
| 20260505070757 | 62 | 194 | 12.2 | 19.1 | 0.14 | 0.03 | 0.03 | 87 | 1007.4 |
| 20260505070254 | 63 | 203 | 6.1 | 14.8 | 0.09 | 0.02 | 0.02 | 85 | 1007.4 |
| 20260505065749 | 63 | 194 | 10.4 | 18.2 | 0.07 | 0.01 | 0.01 | 81 | 1007.4 |
| 20260505065246 | 64 | 199 | 9.6 | 13.9 | 0.05 | 0.01 | 0.01 | 80 | 1006.8 |
| 20260505064743 | 65 | 212 | 11.3 | 13.9 | 0.00 | 0.00 | 0.00 | 76 | 1006.7 |
| 20260505064240 | 66 | 161 | 15.6 | 15.6 | 0.00 | 0.00 | 0.00 | 74 | 1006.5 |
| 20260505063737 | 66 | 182 | 8.7 | 15.6 | 0.00 | 0.00 | 0.00 | 73 | 1006.4 |
| 20260505063234 | 66 | 202 | 7.0 | 13.9 | 0.00 | 0.00 | 0.00 | 73 | 1006.1 |
| 20260505062730 | 67 | 147 | 7.0 | 14.8 | 0.00 | 0.00 | 0.00 | 70 | 1006.1 |
| 20260505062228 | 67 | 149 | 8.7 | 13.9 | 0.00 | 0.00 | 0.00 | 70 | 1005.9 |
| 20260505061725 | 67 | 155 | 9.6 | 20.0 | 0.00 | 0.00 | 0.00 | 70 | 1006.0 |
| 20260505061223 | 67 | 151 | 11.3 | 13.9 | 0.00 | 0.00 | 0.00 | 69 | 1005.9 |
| 20260505060720 | 67 | 150 | 11.3 | 15.6 | 0.00 | 0.00 | 0.00 | 70 | 1006.2 |
| 20260505060217 | 67 | 153 | 9.6 | 15.6 | 0.00 | 0.00 | 0.00 | 70 | 1006.0 |
| 20260505055712 | 66 | 148 | 8.7 | 12.2 | 0.00 | 0.00 | 0.00 | 70 | 1006.2 |
| 20260505055209 | 66 | 165 | 9.6 | 13.0 | 0.00 | 0.00 | 0.00 | 70 | 1006.4 |
| 20260505054706 | 66 | 146 | 9.6 | 11.3 | 0.00 | 0.00 | 0.00 | 71 | 1006.1 |
| 20260505054204 | 66 | 152 | 9.6 | 13.0 | 0.00 | 0.00 | 0.00 | 70 | 1006.1 |
| 20260505053702 | 66 | 154 | 7.8 | 9.6 | 0.00 | 0.00 | 0.00 | 71 | 1006.3 |
| 20260505053158 | 66 | 157 | 5.2 | 7.8 | 0.00 | 0.00 | 0.00 | 71 | 1006.2 |
| 20260505052655 | 66 | 166 | 7.8 | 9.6 | 0.00 | 0.00 | 0.00 | 71 | 1006.4 |
| 20260505052152 | 66 | 151 | 6.1 | 10.4 | 0.00 | 0.00 | 0.00 | 70 | 1006.4 |
| 20260505051649 | 66 | 158 | 10.4 | 11.3 | 0.00 | 0.00 | 0.00 | 70 | 1006.3 |
| 20260505051148 | 66 | 142 | 6.1 | 11.3 | 0.00 | 0.00 | 0.00 | 71 | 1006.1 |
| 20260505050645 | 66 | 141 | 7.8 | 12.2 | 0.00 | 0.00 | 0.00 | 71 | 1006.3 |
| 20260505050144 | 66 | 149 | 8.7 | 10.4 | 0.00 | 0.00 | 0.00 | 71 | 1006.1 |
| 20260505041618 | 67 | 140 | 8.7 | 9.6 | 0.00 | 0.00 | 0.00 | 70 | 1006.6 |
| 20260505041115 | 67 | 141 | 5.2 | 11.3 | 0.00 | 0.00 | 0.00 | 69 | 1007.0 |
| 20260505040613 | 67 | 133 | 7.8 | 9.6 | 0.00 | 0.00 | 0.00 | 70 | 1006.8 |
| 20260505040110 | 67 | 132 | 7.8 | 9.6 | 0.00 | 0.00 | 0.00 | 70 | 1006.7 |
| 20260505035606 | 67 | 133 | 8.7 | 9.6 | 0.00 | 0.00 | 0.00 | 70 | 1007.2 |
| 20260505035102 | 67 | 142 | 8.7 | 8.7 | 0.00 | 0.00 | 0.00 | 70 | 1007.2 |
| 20260505034559 | 67 | 140 | 7.0 | 9.6 | 0.00 | 0.00 | 0.00 | 70 | 1007.3 |
| 20260505034056 | 67 | 135 | 6.1 | 8.7 | 0.00 | 0.00 | 0.00 | 70 | 1007.0 |
| 20260505033553 | 67 | 121 | 5.2 | 9.6 | 0.00 | 0.00 | 0.00 | 70 | 1007.4 |
| 20260505033051 | 67 | 127 | 6.1 | 7.0 | 0.00 | 0.00 | 0.00 | 70 | 1007.3 |
| 20260505032549 | 67 | 150 | 4.3 | 6.1 | 0.00 | 0.00 | 0.00 | 70 | 1007.6 |
| 20260505032045 | 67 | 141 | 3.5 | 6.1 | 0.00 | 0.00 | 0.00 | 70 | 1007.5 |
| 20260505031542 | 67 | 147 | 3.5 | 7.0 | 0.00 | 0.00 | 0.00 | 69 | 1007.6 |
| 20260505031038 | 68 | 157 | 6.1 | 7.0 | 0.00 | 0.00 | 0.00 | 69 | 1007.5 |
| 20260505030536 | 68 | 149 | 5.2 | 7.8 | 0.00 | 0.00 | 0.00 | 68 | 1007.5 |
| 20260505030032 | 68 | 151 | 6.1 | 8.7 | 0.00 | 0.00 | 0.00 | 68 | 1007.7 |
| 20260505025527 | 68 | 141 | 5.2 | 7.0 | 0.00 | 0.00 | 0.00 | 69 | 1007.4 |
| 20260505025027 | 68 | 149 | 3.5 | 6.1 | 0.00 | 0.00 | 0.00 | 68 | 1007.5 |
| 20260505024523 | 68 | 152 | 6.1 | 7.8 | 0.00 | 0.00 | 0.00 | 67 | 1007.3 |
| 20260505024020 | 68 | 143 | 6.1 | 6.1 | 0.00 | 0.00 | 0.00 | 67 | 1007.2 |
| 20260505023517 | 69 | 150 | 4.3 | 6.1 | 0.00 | 0.00 | 0.00 | 67 | 1007.4 |
| 20260505023015 | 69 | 166 | 4.3 | 5.2 | 0.00 | 0.00 | 0.00 | 66 | 1007.3 |
| 20260505022513 | 69 | 161 | 3.5 | 5.2 | 0.00 | 0.00 | 0.00 | 66 | 1007.4 |
| 20260505022010 | 69 | 190 | 2.6 | 5.2 | 0.00 | 0.00 | 0.00 | 65 | 1007.1 |
| 20260505021506 | 69 | 218 | 3.5 | 6.1 | 0.00 | 0.00 | 0.00 | 65 | 1007.0 |
| 20260505021002 | 70 | 207 | 2.6 | 5.2 | 0.00 | 0.00 | 0.00 | 65 | 1007.0 |
| 20260505020457 | 70 | 191 | 6.1 | 7.8 | 0.00 | 0.00 | 0.00 | 64 | 1006.8 |
| 20260505015954 | 70 | 195 | 5.2 | 7.0 | 0.00 | 0.00 | 0.00 | 63 | 1007.1 |
| 20260505015451 | 71 | 192 | 3.5 | 10.4 | 0.00 | 0.00 | 0.00 | 63 | 1007.0 |
| 20260505014948 | 71 | 223 | 12.2 | 13.0 | 0.00 | 0.00 | 0.00 | 62 | 1006.8 |
| 20260505014445 | 71 | 222 | 7.8 | 10.4 | 0.00 | 0.00 | 0.00 | 62 | 1006.6 |
| 20260505013942 | 71 | 220 | 8.7 | 11.3 | 0.00 | 0.00 | 0.00 | 61 | 1006.6 |
| 20260505013439 | 72 | 215 | 10.4 | 14.8 | 0.00 | 0.00 | 0.00 | 60 | 1006.7 |
| 20260505012937 | 72 | 254 | 4.3 | 13.9 | 0.00 | 0.00 | 0.00 | 60 | 1006.5 |
| 20260505012435 | 72 | 229 | 10.4 | 11.3 | 0.00 | 0.00 | 0.00 | 60 | 1006.5 |
| 20260505011931 | 71 | 245 | 11.3 | 14.8 | 0.00 | 0.00 | 0.00 | 61 | 1006.5 |
| 20260505011427 | 71 | 208 | 6.1 | 13.0 | 0.00 | 0.00 | 0.00 | 61 | 1006.3 |
| 20260505010924 | 71 | 198 | 4.3 | 5.2 | 0.00 | 0.00 | 0.00 | 62 | 1006.4 |
| 20260505010420 | 71 | 171 | 3.5 | 5.2 | 0.00 | 0.00 | 0.00 | 62 | 1006.4 |
| 20260505005916 | 72 | 170 | 5.2 | 7.0 | 0.00 | 0.00 | 0.00 | 61 | 1006.2 |
| 20260505005413 | 72 | 174 | 5.2 | 7.0 | 0.00 | 0.00 | 0.00 | 61 | 1006.1 |
| 20260505004911 | 72 | 191 | 3.5 | 8.7 | 0.00 | 0.00 | 0.00 | 61 | 1006.0 |
| 20260505004407 | 72 | 220 | 10.4 | 10.4 | 0.00 | 0.00 | 0.00 | 60 | 1006.0 |
| 20260505003904 | 72 | 170 | 5.2 | 7.0 | 0.00 | 0.00 | 0.00 | 60 | 1005.8 |
| 20260505003401 | 73 | 156 | 4.3 | 6.1 | 0.00 | 0.00 | 0.00 | 60 | 1006.0 |
| 20260505002857 | 73 | 169 | 5.2 | 6.1 | 0.00 | 0.00 | 0.00 | 60 | 1005.7 |
| 20260505002354 | 73 | 180 | 4.3 | 6.1 | 0.00 | 0.00 | 0.00 | 59 | 1005.7 |
| 20260505001853 | 73 | 215 | 5.2 | 7.8 | 0.00 | 0.00 | 0.00 | 59 | 1005.7 |
| 20260505001349 | 73 | 205 | 3.5 | 8.7 | 0.00 | 0.00 | 0.00 | 58 | 1005.9 |
| 20260505000846 | 73 | 190 | 5.2 | 6.1 | 0.00 | 0.00 | 0.00 | 58 | 1006.0 |
| 20260505000344 | 74 | 176 | 5.2 | 8.7 | 0.00 | 0.00 | 0.00 | 57 | 1005.8 |
| 20260504235840 | 74 | 166 | 6.1 | 11.3 | 0.00 | 0.00 | 0.00 | 56 | 1005.6 |
| 20260504235338 | 74 | 205 | 7.0 | 9.6 | 0.00 | 0.00 | 0.00 | 56 | 1005.8 |
| 20260504234834 | 75 | 183 | 7.8 | 12.2 | 0.00 | 0.00 | 0.00 | 54 | 1005.7 |
| 20260504234332 | 75 | 168 | 11.3 | 15.6 | 0.00 | 0.00 | 0.00 | 53 | 1005.8 |
| 20260504233828 | 75 | 177 | 9.6 | 11.3 | 0.00 | 0.00 | 0.00 | 54 | 1006.0 |
| 20260504233324 | 75 | 207 | 11.3 | 14.8 | 0.00 | 0.00 | 0.00 | 53 | 1005.8 |
| 20260504232821 | 75 | 175 | 6.1 | 12.2 | 0.00 | 0.00 | 0.00 | 54 | 1005.7 |
| 20260504232318 | 76 | 225 | 8.7 | 15.6 | 0.00 | 0.00 | 0.00 | 53 | 1005.7 |
| 20260504231815 | 76 | 233 | 11.3 | 18.2 | 0.00 | 0.00 | 0.00 | 52 | 1005.8 |
| 20260504231311 | 77 | 227 | 13.0 | 18.2 | 0.00 | 0.00 | 0.00 | 52 | 1005.7 |